COSMOS 252 DEB, 9973

Orbit data source: Space-Track

COSMOS 252 DEB, 9973 is space debris in LEO originally from a launch on Fri, 01 Nov 1968 UTC launched from the Tyuratam Missile And Space Complex (TTMTR). Debris objects in space refer to the collection of defunct objects orbiting the Earth. Examples of debris include non-operational satellites, rocket bodies, and fragments generated from explosions, collisions, or faulty payload assembly.

Loading next visibility...
Identifier
9973, 1968-097DV
Orbit
LEO
Country
Flag of CISCIS
Related business
Manufacturer
Unknown
Mission
Spacecraft
Bus & Motor
Unknown
Mass
Unknown
Launch date (UTC)
1968-11-01 (58 years ago)
Launch vehicle
Unknown
Launch site
Tyuratam Missile And Space Complex (TTMTR)
Object type
Payload
Rocket body
Debris
Shape & HBR
Unknown shape, 0.1 m
Radar Cross Section
Medium (>0.1 m² and <1 m²)

Expand to show TLE details & history
Last TLE update: 16 hours ago

TLE from 16 hours ago
0 COSMOS 252 DEB
1 09973U 68097DV  26174.59693008  .00000631  00000-0  25765-3 0  9996
2 09973  62.4093  20.9808 0561053 251.1474 102.7940 13.73416123 31676
Epoch: 2026-06-23T14:19Z
TLE epoch observation values (Epoch: 2026-06-23T14:19:34.758Z)
Latitude
0.00002°
Longitude
-105.68023°
Altitude
1,102.154 km
Speed
7.246 km/s
True Right ascension
01h 23m 55s
True Declination
0° 00' 00"
Sunlit
Object was in daylight at epoch
Visualization orbit readout
Latitude
Unknown
Longitude
Unknown
Altitude
Unknown
Speed
Unknown
Apparent Right ascension
Unknown
Apparent Declination
Unknown
Sunlit
N/A
Visualization observer readout
Local Sidereal Time
17:56:19
Azimuth
Unknown
Elevation
Unknown
Doppler factor
Unknown
Orbital elements
Apogee altitude
1,399.448 km
Perigee altitude
573.084 km
Semi-major axis
7,364.403 km
Eccentricity
0.05611
Inclination
62.4093°
RAAN
20.9808°
Arg. of periapsis
251.1474°
True anomaly
108.95576°
Mean anomaly
102.794°
Eccentric anomaly
105.88583°
Mean motion
3.43429 °/min
Orbital period
104.83 mins
BSTAR
0.00025765
Loading maneuver chart data...
Computing Atmospheric mass density...

Documentation

Showing up to 5 results
|